Content
SEND FEEDBACK

Daily
Averages
Monthly
Summary
United States of America

BEDFORD PARK, ILLINOIS


Home > North America > United States > Illinois
Elevation: 623 feet     Latitude: 41 46N     Longitude: 087 45W

WEATHER
 
SELECT A DAY
Number of Records: 192,269;   Date Range: 1/1/95 - 10/19/14
 
SHARE

PRINT THIS DATA

[ ← Previous Day ]
WEATHER ALMANAC - FEBRUARY 4, 2013
[ Next Day → ]
[ °C ]   °F
Weather ElementAverageHighLow
Temperature24.6 °F28.9 °F (1:51 pm)17.1 °F (11:51 pm)
Dewpoint19.1 °F23 °F (3:46 pm)10.9 °F (11:51 pm)
Humidity79.8 %93 % (2:42 am)74 % (8:40 am)
Barometer29.93 in30.04 in (1:51 am)29.84 in (3:46 pm)
Wind Speed9 mph13.8 mph (2:51 pm)
Weather ElementAverage
Visibility6.2 mi
Wind DirectionSSW (196.7 °)

Weather ElementTotal
Precipitation0.03 in
Heating Degree Days42 (Base 65)
Averaged from 36 records on February 4, 2013
WEATHER CONDITIONS BREAKOUT
WIND DIRECTION BREAKOUT
WEATHER BY HOUR - FEBRUARY 4, 2013
[ °C ]   °F
Local TimeTemperatureDewpointHumidityBarometerVisibilityWind DirectionWind SpeedGust SpeedPrecipitationEventsConditions
1:43 AM21.2 °F17.6 °F86 %29.98 in2.0 miESE (110°)4.6 mph0.01 inSnowLight Snow
1:51 AM21.9 °F18.0 °F85 %30.04 in2.0 miSE (140°)5.8 mph0.01 inSnowLight Snow
2:42 AM21.2 °F19.4 °F93 %29.96 in0.8 miESE (110°)5.8 mph0.00 inSnowLight Snow
2:51 AM21.9 °F18.0 °F85 %30.00 in0.8 miESE (110°)6.9 mph0.00 inSnowLight Snow
3:09 AM21.2 °F19.4 °F93 %29.94 in0.8 miESE (120°)6.9 mph0.01 inSnowLight Snow
4:51 AM23.0 °F19.4 °F86 %29.91 in2.0 miESE (110°)4.6 mphSnowLight Snow
5:18 AM23.0 °F19.4 °F86 %29.90 in4.0 miEast (100°)5.8 mph0.00 inSnowLight Snow
5:51 AM23.0 °F19.0 °F85 %29.95 in10.0 miEast (100°)6.9 mph0.00 inSnowLight Snow
6:51 AM24.1 °F19.0 °F81 %29.94 in6.0 miEast (100°)9.2 mph0.00 inSnowLight Snow
7:27 AM24.8 °F19.4 °F80 %29.88 in2.0 miEast (90°)12.7 mph0.00 inSnowLight Snow
7:51 AM25.0 °F19.9 °F81 %29.93 in2.0 miEast (100°)10.4 mph0.00 inSnowLight Snow
8:40 AM26.6 °F19.4 °F74 %29.88 in3.0 miEast (80°)9.2 mph0.00 inSnowLight Snow
8:51 AM26.1 °F21.0 °F81 %29.92 in3.0 miEast (90°)6.9 mph0.00 inSnowLight Snow
9:51 AM26.1 °F19.9 °F78 %29.91 in9.0 miESE (110°)10.4 mph0.00 inOvercast
10:51 AM27.0 °F21.0 °F78 %29.91 in9.0 miEast (80°)8.1 mphOvercast
11:51 AM27.0 °F21.0 °F78 %29.91 in8.0 miNNE (30°)4.6 mphOvercast
12:51 PM28.0 °F21.0 °F75 %29.90 in9.0 miNNE (30°)5.8 mphOvercast
1:51 PM28.9 °F21.9 °F75 %29.90 in8.0 miNorth (360°)8.1 mphOvercast
2:31 PM28.4 °F21.2 °F74 %29.86 in7.0 miNNW (340°)10.4 mphOvercast
2:51 PM28.9 °F21.9 °F75 %29.91 in8.0 miNNW (340°)13.8 mphOvercast
3:46 PM28.4 °F23.0 °F80 %29.84 in9.0 miNorth (10°)12.7 mphOvercast
3:51 PM28.9 °F23.0 °F78 %29.89 in9.0 miNorth (10°)12.7 mphOvercast
4:34 PM28.4 °F21.2 °F74 %29.86 in9.0 miNorth (10°)12.7 mphOvercast
4:51 PM28.0 °F21.9 °F78 %29.92 in9.0 miNorth (360°)11.5 mphOvercast
5:26 PM26.6 °F21.2 °F80 %29.89 in4.0 miNorth (350°)13.8 mph0.00 inSnowLight Snow
5:51 PM27.0 °F21.0 °F78 %29.95 in5.0 miNorth (360°)11.5 mph0.00 inSnowLight Snow
6:46 PM24.8 °F19.4 °F80 %29.93 in6.0 miNNW (330°)11.5 mph0.00 inSnowLight Snow
6:51 PM25.0 °F19.0 °F78 %29.98 in6.0 miNorth (350°)9.2 mph0.00 inSnowLight Snow
7:01 PM24.8 °F17.6 °F74 %29.93 in6.0 miNNW (330°)13.8 mph0.00 inSnowLight Snow
7:24 PM24.8 °F17.6 °F74 %29.93 in6.0 miNorth (350°)9.2 mph0.00 inSnowLight Snow
7:51 PM23.0 °F17.1 °F78 %29.99 in9.0 miNNW (340°)9.2 mph0.00 inSnowLight Snow
8:14 PM21.2 °F15.8 °F80 %29.94 in9.0 miNW (310°)6.9 mph0.00 inOvercast
8:51 PM21.0 °F15.1 °F78 %30.01 in10.0 miNW (320°)8.1 mph0.00 inMostly Cloudy
9:51 PM21.0 °F15.1 °F78 %29.99 in9.0 miNNW (340°)8.1 mphOvercast
10:51 PM19.0 °F12.9 °F77 %30.00 in10.0 miNNW (340°)9.2 mphMostly Cloudy
11:51 PM17.1 °F10.9 °F77 %30.01 in10.0 miNW (320°)8.1 mphMostly Cloudy
Hourly data recorded from KMDW, located miles away from Bedford Park, Illinois







STORIES FROM OUR PARTNERS